[Date Prev][Date Next][Thread Prev][Thread Next] - [Date Index][Thread Index][Author Index]

2 Line ISS Keps 12-18



ISS
1 25544U 98067A   02352.09642860  .00030463  00000-0  40815-3 0  4854
2 25544  51.6357 209.7554 0003377 283.2673 214.3735 15.57705851232659


----
Via the sarex mailing list at AMSAT.ORG courtesy of AMSAT-NA.
To unsubscribe, send "unsubscribe sarex" to Majordomo@amsat.org



AMSAT Top AMSAT Home